Current Weather Conditions: station 62129

sailwx.info

Wind from 220 at 18 knots

Air temperature 11.6° C
Dewpoint 9.2° C

Last reported at 2019-Jun-18 06:00 UTC.
Time now 2019-Jun-18 07:35 UTC

Location: N 58°24' E 000°18'.
View on Google Maps.

See reports from other nearby stations

  
Tides and Currents Weather Stations Pressure Air Temp Water Temp Dewpoint Dewpoint Depression Visibility Wind Speed Wind Dir Waves Ship Positions
date/time (UTC)wind fromknots sea level pressurealtimeterstation pressurevisibilityair tempwater tempwave heightnotes
2019-Jun-18 06:00 220 18 11.6
2019-Jun-18 05:00 220 13 11.5
2019-Jun-18 04:00 220 14 11.4
2019-Jun-18 03:00 220 15 11.6
2019-Jun-18 02:00 240 17 11.7
2019-Jun-18 01:00 230 19 11.7
2019-Jun-18 00:00 240 18 11.8
2019-Jun-17 23:00 230 21 12.2
2019-Jun-17 22:00 220 24 12.5
2019-Jun-17 21:00 210 24 12.5
2019-Jun-17 20:00 200 24 12.4
2019-Jun-17 19:00 200 22 12.4
2019-Jun-17 18:00 200 24 12.4
2019-Jun-17 17:00 200 22 12.5
2019-Jun-17 16:00 200 25 12.5
2019-Jun-17 15:00 200 22 12.4
2019-Jun-17 14:00 210 24 12.6
2019-Jun-17 13:00 210 22 12.7
2019-Jun-17 12:00 210 21 12.5
2019-Jun-17 11:00 210 24 12.6
2019-Jun-17 10:00 210 25 12.5
2019-Jun-17 09:00 210 24 12.4
2019-Jun-17 08:00 200 22 12.1
2019-Jun-17 07:00 200 24 12.2
2019-Jun-17 06:00 190 22 12.2
2019-Jun-17 05:00 180 24 12.2
2019-Jun-17 04:00 160 20 11.6
2019-Jun-17 03:00 160 19 11.8
2019-Jun-17 02:00 160 20 12.0
2019-Jun-17 01:00 160 19 11.8
2019-Jun-17 00:00 170 17 11.6
2019-Jun-16 23:00 170 17 11.5
2019-Jun-16 22:00 170 17 11.5
2019-Jun-16 21:00 170 17 11.6
2019-Jun-16 20:00 180 14 11.5
2019-Jun-16 19:00 180 17 11.5
2019-Jun-16 18:00 180 15 11.6
2019-Jun-16 17:00 190 18 11.5
2019-Jun-16 16:00 190 17 11.6
2019-Jun-16 15:00 200 17 11.6
2019-Jun-16 14:00 190 17 11.6
2019-Jun-16 13:00 200 18 11.6
2019-Jun-16 12:00 190 14 11.6
2019-Jun-16 11:00 190 14 11.3
2019-Jun-16 10:00 190 14 11.4
2019-Jun-16 09:00 210 13 11.2
2019-Jun-16 08:00 190 13 11.8
2019-Jun-16 07:00 170 13 11.8